GW7050 Weather Reports


time (UTC)temp
C
wind
direction
speed
KPH
gust
KPH
rain 1hr
cm
rain 24hr
cm
rain mn
cm
humidity
%
barometer
mb
20260504050259 17 133 1.6 6.4 0.00 0.00 0.00 74 1018.7
20260504045757 17 127 1.6 6.4 0.00 0.00 0.00 74 1018.9
20260504045256 17 183 1.6 4.8 0.00 0.00 0.00 74 1019.0
20260504044754 17 163 1.6 6.4 0.00 0.00 0.00 73 1019.0
20260504044251 17 137 3.2 9.7 0.00 0.00 0.00 73 1019.1
20260504043748 17 116 6.4 11.3 0.00 0.00 0.00 73 1019.1
20260504043245 17 160 3.2 11.3 0.00 0.00 0.00 74 1019.1
20260504042743 17 137 3.2 11.3 0.00 0.00 0.00 73 1019.1
20260504042239 17 169 4.8 9.7 0.00 0.00 0.00 74 1019.2
20260504041736 17 138 3.2 6.4 0.00 0.00 0.00 74 1019.2
20260504041232 17 180 3.2 9.7 0.00 0.00 0.00 74 1019.1
20260504040728 17 105 1.6 11.3 0.00 0.00 0.00 74 1019.1
20260504040225 17 209 1.6 4.8 0.00 0.00 0.00 73 1019.0
20260504035721 17 130 8.0 11.3 0.00 0.00 0.00 73 1018.9
20260504035219 17 119 1.6 4.8 0.00 0.00 0.00 72 1019.3
20260504034716 17 129 1.6 9.7 0.00 0.00 0.00 72 1019.2
20260504034213 17 131 1.6 9.7 0.00 0.00 0.00 71 1019.0
20260504033711 17 124 3.2 9.7 0.00 0.00 0.00 71 1018.9
20260504033208 18 146 3.2 6.4 0.00 0.00 0.00 71 1018.9
20260504032705 18 167 6.4 6.4 0.00 0.00 0.00 71 1018.9
20260504032202 18 135 3.2 6.4 0.00 0.00 0.00 70 1018.9
20260504031659 18 141 3.2 9.7 0.00 0.00 0.00 70 1019.0
20260504031155 18 206 3.2 6.4 0.00 0.00 0.00 71 1019.0
20260504030652 18 160 3.2 6.4 0.00 0.00 0.00 71 1019.0
20260504030149 18 146 1.6 3.2 0.00 0.00 0.00 70 1019.0
20260504025646 18 129 1.6 3.2 0.00 0.00 0.00 69 1019.0
20260504025142 18 162 3.2 3.2 0.00 0.00 0.00 69 1019.1
20260504024640 18 138 1.6 3.2 0.00 0.00 0.00 68 1018.9
20260504024136 18 150 3.2 6.4 0.00 0.00 0.00 66 1018.9
20260504023633 19 212 3.2 6.4 0.00 0.00 0.00 66 1018.7
20260504023129 19 161 6.4 9.7 0.00 0.00 0.00 66 1018.5
20260504022625 19 140 6.4 11.3 0.00 0.00 0.00 65 1018.3
20260504022121 19 210 4.8 12.9 0.00 0.00 0.00 64 1018.4
20260504021620 20 208 6.4 11.3 0.00 0.00 0.00 64 1018.2
20260504021116 20 175 9.7 12.9 0.00 0.00 0.00 64 1018.5
20260504020613 20 132 6.4 14.5 0.00 0.00 0.00 65 1018.3
20260504020109 20 123 4.8 11.3 0.00 0.00 0.00 65 1018.3
20260504015606 20 104 3.2 6.4 0.00 0.00 0.00 65 1018.3
20260504015101 20 130 3.2 6.4 0.00 0.00 0.00 66 1018.3
20260504014558 20 124 6.4 11.3 0.00 0.00 0.00 66 1018.5
20260504014055 20 159 1.6 4.8 0.00 0.00 0.00 66 1018.3
20260504013553 20 199 3.2 12.9 0.00 0.00 0.00 65 1018.1
20260504013049 20 177 4.8 6.4 0.00 0.00 0.00 65 1018.2
20260504012547 20 180 6.4 9.7 0.00 0.00 0.00 65 1018.1
20260504012045 20 171 3.2 3.2 0.00 0.00 0.00 65 1018.0
20260504011541 20 118 6.4 11.3 0.00 0.00 0.00 63 1018.2
20260504011037 21 124 3.2 11.3 0.00 0.00 0.00 63 1017.9
20260504010533 21 179 3.2 9.7 0.00 0.00 0.00 63 1017.8
20260504010029 21 154 3.2 6.4 0.00 0.00 0.00 63 1018.0
20260504005526 21 66 1.6 14.5 0.00 0.00 0.00 62 1017.9
20260504005024 21 144 3.2 11.3 0.00 0.00 0.00 62 1018.1
20260504004521 22 158 1.6 6.4 0.00 0.00 0.00 60 1018.1
20260504004018 22 156 1.6 4.8 0.00 0.00 0.00 57 1018.1
20260504003514 22 139 8.0 9.7 0.00 0.00 0.00 50 1018.1
20260504003011 23 143 1.6 4.8 0.00 0.00 0.00 49 1018.1
20260504002508 23 128 3.2 9.7 0.00 0.00 0.00 46 1018.2
20260504002006 23 127 6.4 6.4 0.00 0.00 0.00 45 1017.9
20260504001503 23 127 4.8 9.7 0.00 0.00 0.00 45 1018.1
20260504000959 23 165 3.2 6.4 0.00 0.00 0.00 44 1018.1
20260504000457 23 124 3.2 9.7 0.00 0.00 0.00 44 1018.1
20260503235954 23 133 3.2 4.8 0.00 0.00 0.00 45 1018.2
20260503235451 23 119 9.7 12.9 0.00 0.00 0.00 42 1018.3
20260503234948 23 97 1.6 6.4 0.00 0.00 0.00 44 1018.2
20260503234446 24 144 6.4 6.4 0.00 0.00 0.00 43 1018.3
20260503233944 24 136 3.2 4.8 0.00 0.00 0.00 43 1018.1
20260503233440 24 169 3.2 9.7 0.00 0.00 0.00 41 1018.1
20260503232936 24 126 4.8 11.3 0.00 0.00 0.00 43 1018.1
20260503232433 24 104 8.0 12.9 0.00 0.00 0.00 42 1018.3
20260503231932 24 145 6.4 11.3 0.00 0.00 0.00 41 1018.3
20260503231429 24 128 1.6 6.4 0.00 0.00 0.00 41 1018.5
20260503230925 25 125 9.7 12.9 0.00 0.00 0.00 38 1018.5
20260503230421 25 144 3.2 4.8 0.00 0.00 0.00 38 1018.6
20260503225920 25 161 1.6 3.2 0.00 0.00 0.00 43 1018.3
20260503225416 25 167 11.3 14.5 0.00 0.00 0.00 40 1018.4
20260503224912 25 158 6.4 11.3 0.00 0.00 0.00 43 1018.4
20260503224409 25 127 8.0 11.3 0.00 0.00 0.00 37 1018.6
20260503223906 25 146 8.0 14.5 0.00 0.00 0.00 42 1018.8
20260503223404 25 106 8.0 17.7 0.00 0.00 0.00 39 1018.8
20260503222859 25 141 11.3 14.5 0.00 0.00 0.00 40 1018.9
20260503222358 25 157 6.4 9.7 0.00 0.00 0.00 42 1018.9
20260503221856 25 147 11.3 20.9 0.00 0.00 0.00 39 1018.8
20260503221354 25 99 6.4 11.3 0.00 0.00 0.00 40 1018.9
20260503220850 25 137 9.7 12.9 0.00 0.00 0.00 40 1018.9
20260503220347 25 147 4.8 6.4 0.00 0.00 0.00 41 1019.0
20260503215844 25 145 9.7 11.3 0.00 0.00 0.00 41 1019.2
20260503215341 25 110 9.7 12.9 0.00 0.00 0.00 40 1019.4
20260503214838 25 147 4.8 4.8 0.00 0.00 0.00 38 1019.3
20260503214336 25 142 4.8 12.9 0.00 0.00 0.00 38 1019.4
20260503213833 25 217 8.0 14.5 0.00 0.00 0.00 40 1019.4
20260503213331 25 142 3.2 22.5 0.00 0.00 0.00 43 1019.5
20260503212827 25 137 8.0 12.9 0.00 0.00 0.00 38 1019.6
20260503212325 25 154 1.6 9.7 0.00 0.00 0.00 40 1019.8
20260503211822 25 126 3.2 9.7 0.00 0.00 0.00 38 1019.7
20260503211319 25 153 4.8 9.7 0.00 0.00 0.00 40 1019.9
20260503210819 25 98 3.2 9.7 0.00 0.00 0.00 39 1020.1
20260503210317 25 117 6.4 14.5 0.00 0.00 0.00 40 1020.2
20260503205811 25 123 6.4 9.7 0.00 0.00 0.00 39 1020.1
20260503205308 25 146 6.4 9.7 0.00 0.00 0.00 46 1020.2
20260503204805 25 143 3.2 14.5 0.00 0.00 0.00 37 1020.3
20260503204303 25 109 3.2 6.4 0.00 0.00 0.00 39 1020.1
20260503203800 25 155 6.4 11.3 0.00 0.00 0.00 38 1020.4
20260503203257 25 113 6.4 11.3 0.00 0.00 0.00 38 1020.6
20260503202754 26 142 6.4 6.4 0.00 0.00 0.00 44 1020.6
20260503202252 25 103 1.6 3.2 0.00 0.00 0.00 45 1020.7
20260503201749 25 129 3.2 11.3 0.00 0.00 0.00 41 1021.0
20260503201247 25 78 11.3 14.5 0.00 0.00 0.00 43 1020.9
20260503200743 25 98 8.0 11.3 0.00 0.00 0.00 41 1021.0
20260503200239 25 176 4.8 6.4 0.00 0.00 0.00 40 1021.0
20260503195736 25 149 6.4 12.9 0.00 0.00 0.00 36 1021.0
20260503195233 25 123 12.9 16.1 0.00 0.00 0.00 38 1021.3
20260503194731 25 121 9.7 16.1 0.00 0.00 0.00 41 1020.9
20260503194226 25 157 4.8 14.5 0.00 0.00 0.00 45 1021.2
20260503193723 26 97 9.7 11.3 0.00 0.00 0.00 38 1021.3
20260503193219 25 341 3.2 6.4 0.00 0.00 0.00 42 1021.4
20260503192715 25 98 3.2 6.4 0.00 0.00 0.00 40 1021.4
20260503192210 25 138 8.0 16.1 0.00 0.00 0.00 37 1021.6
20260503191707 25 239 4.8 9.7 0.00 0.00 0.00 42 1021.5
20260503191204 25 147 3.2 16.1 0.00 0.00 0.00 40 1021.7
20260503190701 25 144 3.2 9.7 0.00 0.00 0.00 39 1021.7
20260503190158 25 118 12.9 16.1 0.00 0.00 0.00 39 1021.8
20260503185655 25 106 8.0 12.9 0.00 0.00 0.00 40 1021.8
20260503185150 25 93 8.0 12.9 0.00 0.00 0.00 34 1022.0
20260503184645 26 130 6.4 11.3 0.00 0.00 0.00 43 1022.0
20260503184142 25 136 3.2 6.4 0.00 0.00 0.00 42 1022.1
20260503183638 26 275 3.2 4.8 0.00 0.00 0.00 38 1022.1
20260503183136 26 241 3.2 4.8 0.00 0.00 0.00 38 1022.1
20260503182634 25 116 1.6 6.4 0.00 0.00 0.00 39 1022.4
20260503182132 26 122 4.8 9.7 0.00 0.00 0.00 39 1022.3
20260503181629 26 96 1.6 4.8 0.00 0.00 0.00 41 1022.5
20260503181125 25 189 1.6 3.2 0.00 0.00 0.00 43 1022.5
20260503180622 25 215 6.4 11.3 0.00 0.00 0.00 47 1022.6
20260503180120 25 122 1.6 4.8 0.00 0.00 0.00 41 1022.7
20260503175617 25 123 4.8 11.3 0.00 0.00 0.00 40 1022.7
20260503175114 26 128 0.0 4.8 0.00 0.00 0.00 43 1022.8
20260503174611 25 128 1.6 6.4 0.00 0.00 0.00 43 1022.9
20260503174108 25 220 4.8 6.4 0.00 0.00 0.00 46 1022.8
20260503173602 25 207 3.2 3.2 0.00 0.00 0.00 41 1023.2
20260503173059 25 225 1.6 4.8 0.00 0.00 0.00 48 1023.3
20260503172556 25 227 4.8 6.4 0.00 0.00 0.00 47 1023.4
20260503172054 25 134 3.2 4.8 0.00 0.00 0.00 45 1023.5
20260503171550 25 140 4.8 6.4 0.00 0.00 0.00 47 1023.3
20260503171047 25 237 4.8 6.4 0.00 0.00 0.00 49 1023.5
20260503170543 25 265 1.6 3.2 0.00 0.00 0.00 46 1023.6
20260503150936 22 189 3.2 4.8 0.00 0.00 0.00 60 1023.7
20260503150433 22 161 1.6 4.8 0.00 0.00 0.00 58 1023.6
20260503131326 15 105 0.0 0.0 0.00 0.00 0.00 98 1023.3
20260503130823 14 105 0.0 0.0 0.00 0.00 0.00 98 1023.2
20260503130321 14 105 0.0 0.0 0.00 0.00 0.00 97 1023.4
20260503110714 10 106 0.0 0.0 0.00 0.00 0.00 97 1021.9
20260503110211 11 106 0.0 0.0 0.00 0.00 0.00 97 1021.8
20260503100138 11 106 0.0 0.0 0.00 0.00 0.00 96 1021.9
20260503081532 11 105 0.0 0.0 0.00 0.00 0.00 96 1021.7
20260503081030 12 106 0.0 0.0 0.00 0.00 0.00 95 1021.9
20260503080526 12 106 0.0 0.0 0.00 0.00 0.00 95 1021.6
20260503072500 12 106 0.0 0.0 0.00 0.00 0.00 95 1022.0
20260503071956 12 106 0.0 0.0 0.00 0.00 0.00 95 1022.0
20260503071453 12 106 0.0 0.0 0.00 0.00 0.00 95 1022.1
20260503070949 12 105 0.0 0.0 0.00 0.00 0.00 95 1022.1
20260503070447 12 105 0.0 0.0 0.00 0.00 0.00 95 1022.0